Location: Newark
(35.8614°N, 139.6456°E)
Time: 10:52:39
(UTC+00:00)

ISS - Visible Passes

Search period start: 09 December 2019 00:00
Search period end: 19 December 2019 00:00
Orbit: 411 x 421 km, 51.6° (Epoch: 09 December)

Date Brightness Start Highest point End Pass type
(mag) Time Alt. Az. Time Alt. Az. Time Alt. Az.
09 Dec -3.5 08:57:30 10° NW 09:00:35 51° NNE 09:00:35 51° NNE visible
10 Dec -2.8 08:09:14 10° NNW 08:12:15 30° NE 08:15:09 11° E visible
10 Dec -1.2 09:46:08 10° WNW 09:48:08 22° WSW 09:48:08 22° WSW visible
11 Dec -2.7 08:57:19 10° WNW 09:00:31 45° SW 09:03:12 14° SSE visible
12 Dec -3.8 08:08:44 10° NW 08:12:06 90° SW 08:15:27 10° SE visible
13 Dec -0.5 08:58:10 10° W 09:00:01 14° SW 09:01:51 10° SSW visible
14 Dec -1.2 08:08:50 10° WNW 08:11:40 26° SW 08:14:31 10° S visible
